Weather History for Carson City, NV

Change the Weather History Date:

Tuesday, May 7, 2013

  Actual Average Record
Temperature  
Mean Temperature 50 °F -  
Max Temperature 57 °F 69 °F 68 °F (2012)
Min Temperature 42 °F 37 °F 32 °F (2012)
Degree Days  
Heating Degree Days 16    
Moisture  
Dew Point 41 °F    
Average Humidity 77    
Maximum Humidity 93    
Minimum Humidity 51    
Precipitation  
Precipitation 0.00 in - - ()
Sea Level Pressure  
Sea Level Pressure 30.00 in    
Wind  
Wind Speed 3 mph (West)    
Max Wind Speed 16 mph    
Max Gust Speed 22 mph    
Visibility 9 miles    
Events Rain    
Averages and records for this station are not official NWS values.
T = Trace of Precipitation, MM = Missing Value Source: NWS Daily Summary

Daily Weather History Graph

Daily Weather History Graph

Search for Another Location

Airport:

Trip Planner

Search our weather history database for the weather conditions in past years. The results will help you decide how hot, cold, wet, or windy it might be!

Date:

Astronomy

May. 07, 2013 Rise Set
Actual Time 5:53 AM PDT 7:58 PM PDT
Civil Twilight 5:23 AM PDT 8:27 PM PDT
Nautical Twilight 4:47 AM PDT 9:03 PM PDT
Astronomical Twilight 4:08 AM PDT 9:43 PM PDT
Moon 4:29 AM PDT (5/7) 6:03 PM PDT (5/7)
Length of Visible Light 15h 03m
Length of Day
14h 04m
Waning Crescent, 5% of the Moon is Illuminated
May 7
Waning Crescent
May 9
New
May 17
First Quarter
May 24
Full
May 31
Last Quarter

Hourly Weather History & Observations

Time (PDT) Temp. Windchill Dew Point Humidity Pressure Visibility Wind Dir Wind Speed Gust Speed Precip Events Conditions
12:15 AM 44.6 °F - 39.2 °F 81% 29.97 in 10.0 mi Calm Calm - N/A   Overcast
12:35 AM 46.4 °F - 39.2 °F 76% 29.98 in 10.0 mi Calm Calm - N/A   Overcast
12:55 AM 44.6 °F 42.2 °F 41.0 °F 87% 29.98 in 10.0 mi East 4.6 mph - N/A   Overcast
1:15 AM 44.6 °F - 41.0 °F 87% 29.98 in 10.0 mi Calm Calm - N/A   Overcast
1:35 AM 44.6 °F - 41.0 °F 87% 29.98 in 10.0 mi Calm Calm - N/A   Overcast
1:55 AM 44.6 °F 43.1 °F 39.2 °F 81% 29.98 in 9.0 mi SSE 3.5 mph - N/A Rain Light Rain
2:15 AM 44.6 °F - 41.0 °F 87% 29.98 in 8.0 mi Calm Calm - N/A Rain Light Rain
2:35 AM 44.6 °F 43.1 °F 41.0 °F 87% 29.98 in 5.0 mi NE 3.5 mph - N/A Rain Light Rain
2:55 AM 44.6 °F - 41.0 °F 87% 29.98 in 5.0 mi Calm Calm - N/A Rain Light Rain
3:15 AM 44.6 °F - 41.0 °F 87% 29.98 in 7.0 mi Calm Calm - N/A Rain Light Rain
3:35 AM 44.6 °F 43.1 °F 41.0 °F 87% 29.98 in 9.0 mi WNW 3.5 mph - N/A Rain Light Rain
3:55 AM 44.6 °F 43.1 °F 41.0 °F 87% 29.97 in 10.0 mi West 3.5 mph - N/A Rain Light Rain
4:15 AM 44.6 °F 43.1 °F 41.0 °F 87% 29.97 in 10.0 mi SW 3.5 mph - N/A Rain Light Rain
4:35 AM 44.6 °F - 41.0 °F 87% 29.98 in 10.0 mi Calm Calm - N/A Rain Light Rain
4:55 AM 44.6 °F 43.1 °F 41.0 °F 87% 29.98 in 10.0 mi SSW 3.5 mph - N/A   Overcast
5:15 AM 42.8 °F 41.1 °F 41.0 °F 93% 29.97 in 10.0 mi SW 3.5 mph - N/A   Overcast
5:35 AM 44.6 °F 40.2 °F 39.2 °F 81% 29.98 in 10.0 mi NW 8.1 mph - N/A Rain Light Rain
5:55 AM 42.8 °F 38.0 °F 37.4 °F 81% 29.98 in 10.0 mi NW 8.1 mph - N/A   Overcast
6:15 AM 44.6 °F 40.7 °F 37.4 °F 76% 29.98 in 10.0 mi NW 6.9 mph - N/A   Overcast
6:35 AM 44.6 °F 42.2 °F 37.4 °F 76% 29.98 in 10.0 mi WNW 4.6 mph - N/A   Overcast
6:55 AM 44.6 °F - 37.4 °F 76% 29.98 in 10.0 mi Calm Calm - N/A   Overcast
7:15 AM 44.6 °F 43.1 °F 39.2 °F 81% 29.99 in 10.0 mi SSW 3.5 mph - N/A   Overcast
7:35 AM 44.6 °F - 39.2 °F 81% 29.99 in 10.0 mi Calm Calm - N/A   Overcast
7:55 AM 44.6 °F 43.1 °F 39.2 °F 81% 29.99 in 10.0 mi WSW 3.5 mph - N/A   Overcast
8:15 AM 44.6 °F 43.1 °F 39.2 °F 81% 30.00 in 10.0 mi WSW 3.5 mph - N/A   Overcast
8:35 AM 44.6 °F 43.1 °F 41.0 °F 87% 30.00 in 5.0 mi SSW 3.5 mph - N/A Rain Light Rain
8:55 AM 44.6 °F - 41.0 °F 87% 30.01 in 3.0 mi Calm Calm - N/A Rain Light Rain
9:15 AM 44.6 °F 43.1 °F 39.2 °F 81% 30.01 in 10.0 mi WSW 3.5 mph - N/A Rain Light Rain
9:35 AM 44.6 °F - 39.2 °F 81% 30.02 in 9.0 mi Calm Calm - N/A   Overcast
9:55 AM 46.4 °F 45.2 °F 41.0 °F 81% 30.01 in 10.0 mi South 3.5 mph - N/A   Mostly Cloudy
10:15 AM 46.4 °F 45.2 °F 41.0 °F 81% 30.01 in 10.0 mi SSE 3.5 mph - N/A   Overcast
10:55 AM 50.0 °F - 41.0 °F 71% 30.01 in 10.0 mi East 3.5 mph - N/A   Overcast
11:15 AM 48.2 °F - 41.0 °F 76% 30.02 in 10.0 mi Calm Calm - N/A   Overcast
11:35 AM 50.0 °F - 41.0 °F 71% 30.01 in 10.0 mi Calm Calm - N/A   Overcast
11:55 AM 50.0 °F - 41.0 °F 71% 30.01 in 10.0 mi Calm Calm - N/A   Overcast
12:15 PM 51.8 °F - 41.0 °F 67% 30.00 in 10.0 mi North 3.5 mph - N/A   Overcast
12:35 PM 53.6 °F - 41.0 °F 62% 29.99 in 10.0 mi NW 4.6 mph - N/A   Mostly Cloudy
12:55 PM 53.6 °F - 41.0 °F 62% 29.99 in 10.0 mi WSW 3.5 mph - N/A   Mostly Cloudy
1:15 PM 55.4 °F - 41.0 °F 58% 29.98 in 10.0 mi North 11.5 mph - N/A   Scattered Clouds
1:35 PM 55.4 °F - 39.2 °F 54% 29.98 in 10.0 mi NW 12.7 mph 17.3 mph N/A   Partly Cloudy
1:55 PM 55.4 °F - 39.2 °F 54% 29.98 in 10.0 mi NW 6.9 mph - N/A   Clear
2:15 PM 55.4 °F - 39.2 °F 54% 29.97 in 10.0 mi NW 15.0 mph - N/A   Partly Cloudy
2:35 PM 57.2 °F - 39.2 °F 51% 29.97 in 10.0 mi NW 16.1 mph 21.9 mph N/A   Mostly Cloudy
2:55 PM 55.4 °F - 39.2 °F 54% 29.98 in 10.0 mi NW 15.0 mph 19.6 mph N/A   Overcast
3:15 PM 55.4 °F - 39.2 °F 54% 29.98 in 10.0 mi NW 13.8 mph 18.4 mph N/A   Overcast
3:35 PM 55.4 °F - 37.4 °F 51% 29.98 in 10.0 mi WNW 12.7 mph - N/A   Mostly Cloudy
3:55 PM 55.4 °F - 37.4 °F 51% 29.97 in 10.0 mi WNW 12.7 mph - N/A   Scattered Clouds
4:15 PM 53.6 °F - 37.4 °F 54% 29.97 in 10.0 mi WNW 8.1 mph - N/A   Overcast
4:35 PM 53.6 °F - 37.4 °F 54% 29.97 in 5.0 mi NNW 8.1 mph - N/A Rain Light Rain
4:55 PM 53.6 °F - 37.4 °F 54% 29.98 in 7.0 mi Calm Calm - N/A Rain Light Rain
5:15 PM 50.0 °F - 42.8 °F 76% 29.98 in 7.0 mi SE 3.5 mph - N/A Rain Light Rain
5:35 PM 50.0 °F - 44.6 °F 82% 29.99 in 6.0 mi SE 5.8 mph - N/A Rain Light Rain
5:55 PM 50.0 °F - 44.6 °F 82% 29.99 in 5.0 mi Calm Calm - N/A Rain Light Rain
6:15 PM 50.0 °F - 44.6 °F 82% 29.99 in 10.0 mi Calm Calm - N/A   Mostly Cloudy
6:35 PM 50.0 °F - 44.6 °F 82% 29.98 in 10.0 mi ENE 4.6 mph - N/A   Overcast
6:55 PM 50.0 °F - 42.8 °F 76% 29.98 in 10.0 mi East 3.5 mph - N/A   Overcast
7:15 PM 50.0 °F - 44.6 °F 82% 29.99 in 5.0 mi ENE 3.5 mph - N/A Rain Light Rain
7:35 PM 50.0 °F - 44.6 °F 82% 30.00 in 10.0 mi ENE 5.8 mph - N/A   Mostly Cloudy
7:55 PM 48.2 °F - 44.6 °F 87% 30.00 in 4.0 mi East 5.8 mph - N/A Rain Light Rain
8:15 PM 48.2 °F - 44.6 °F 87% 30.01 in 8.0 mi East 6.9 mph - N/A Rain Light Rain
8:35 PM 46.4 °F - 44.6 °F 93% 30.01 in 5.0 mi Calm Calm - N/A Rain Light Rain
8:55 PM 46.4 °F 45.2 °F 44.6 °F 93% 30.02 in 9.0 mi SW 3.5 mph - N/A Rain Light Rain
9:15 PM 46.4 °F 44.3 °F 42.8 °F 87% 30.02 in 10.0 mi SW 4.6 mph - N/A Rain Light Rain
9:35 PM 46.4 °F 44.3 °F 42.8 °F 87% 30.03 in 10.0 mi SSW 4.6 mph - N/A Rain Light Rain
9:55 PM 46.4 °F - 44.6 °F 93% 30.04 in 10.0 mi Calm Calm - N/A Rain Light Rain
10:15 PM 46.4 °F - 42.8 °F 87% 30.04 in 9.0 mi Calm Calm - N/A Rain Light Rain
10:35 PM 46.4 °F - 42.8 °F 87% 30.05 in 9.0 mi Calm Calm - N/A Rain Light Rain
10:55 PM 46.4 °F - 42.8 °F 87% 30.05 in 9.0 mi Calm Calm - N/A Rain Light Rain
11:15 PM 46.4 °F 45.2 °F 41.0 °F 81% 30.06 in 8.0 mi WSW 3.5 mph - N/A Rain Light Rain
11:35 PM 46.4 °F - 42.8 °F 87% 30.06 in 6.0 mi Calm Calm - N/A Rain Light Rain
11:55 PM 46.4 °F 44.3 °F 42.8 °F 87% 30.06 in 9.0 mi SSW 4.6 mph - N/A Rain Light Rain